STARLINK-32405

Last updated on Thu Nov 21 2024 00:02:04 GMT+0000 (Coordinated Universal Time)

1 61636U 24191R 24325.58335648 -.00623950 00000+0 -15950-1 0 9994 2 61636 42.9992 329.7317 0001565 270.4156 73.1638 15.41145778 5582
UTC large
Height (km)
Speed (km/s)
/
Latitude / Longitude
Inclination (degrees)
Orbital Period (minutes)
Azimuth
Elevation
Range (km)
Doppler Factor

Next 0 passes for location: London (51.5072 / 0.1276)

Sorry there are no passes over London.